Year,Month,Day,Hour,Minute,Value (Times are PST for temperature in C)
2020,08,14,00,00,13.30
2020,08,14,00,01,13.30
2020,08,14,00,02,13.30
2020,08,14,00,03,13.30
2020,08,14,00,04,13.30
2020,08,14,00,05,13.30
2020,08,14,00,06,13.30
2020,08,14,00,07,13.30
2020,08,14,00,08,13.30
2020,08,14,00,09,13.20
2020,08,14,00,10,13.20
2020,08,14,00,11,13.20
2020,08,14,00,12,13.20
2020,08,14,00,13,13.20
2020,08,14,00,14,13.20
2020,08,14,00,15,13.20
2020,08,14,00,16,13.20
2020,08,14,00,17,13.20
2020,08,14,00,18,13.10
2020,08,14,00,19,13.10
2020,08,14,00,20,13.10
2020,08,14,00,21,13.10
2020,08,14,00,22,13.10
2020,08,14,00,23,13.10
2020,08,14,00,24,13.10
2020,08,14,00,25,13.10
2020,08,14,00,26,13.10
2020,08,14,00,27,13.00
2020,08,14,00,28,13.00
2020,08,14,00,29,13.00
2020,08,14,00,30,13.00
2020,08,14,00,31,13.00
2020,08,14,00,32,13.00
2020,08,14,00,33,12.90
2020,08,14,00,34,12.90
2020,08,14,00,35,12.90
2020,08,14,00,36,12.90
2020,08,14,00,37,12.80
2020,08,14,00,38,12.80
2020,08,14,00,39,12.80
2020,08,14,00,40,12.80
2020,08,14,00,41,12.80
2020,08,14,00,42,12.80
2020,08,14,00,43,12.80
2020,08,14,00,44,12.70
2020,08,14,00,45,12.70
2020,08,14,00,46,12.70
2020,08,14,00,47,12.70
2020,08,14,00,48,12.60
2020,08,14,00,49,12.60
2020,08,14,00,50,12.60
2020,08,14,00,51,12.60
2020,08,14,00,52,12.60
2020,08,14,00,53,12.60
2020,08,14,00,54,12.50
2020,08,14,00,55,12.50
2020,08,14,00,56,12.50
2020,08,14,00,57,12.50
2020,08,14,00,58,12.50
2020,08,14,00,59,12.50
2020,08,14,01,00,12.50
2020,08,14,01,01,12.50
2020,08,14,01,02,12.50
2020,08,14,01,03,12.50
2020,08,14,01,04,12.50
2020,08,14,01,05,12.40
2020,08,14,01,06,12.40
2020,08,14,01,07,12.40
2020,08,14,01,08,12.40
2020,08,14,01,09,12.30
2020,08,14,01,10,12.30
2020,08,14,01,11,12.30
2020,08,14,01,12,12.30
2020,08,14,01,13,12.30
2020,08,14,01,14,12.30
2020,08,14,01,15,12.30
2020,08,14,01,16,12.30
2020,08,14,01,17,12.30
2020,08,14,01,18,12.30
2020,08,14,01,19,12.30
2020,08,14,01,20,12.30
2020,08,14,01,21,12.30
2020,08,14,01,22,12.30
2020,08,14,01,23,12.30
2020,08,14,01,24,12.20
2020,08,14,01,25,12.20
2020,08,14,01,26,12.20
2020,08,14,01,27,12.20
2020,08,14,01,28,12.10
2020,08,14,01,29,12.10
2020,08,14,01,30,12.10
2020,08,14,01,31,12.10
2020,08,14,01,32,12.10
2020,08,14,01,33,12.00
2020,08,14,01,34,12.00
2020,08,14,01,35,12.00
2020,08,14,01,36,12.00
2020,08,14,01,37,12.00
2020,08,14,01,38,12.00
2020,08,14,01,39,12.00
2020,08,14,01,40,12.00
2020,08,14,01,41,12.00
2020,08,14,01,42,12.00
2020,08,14,01,43,12.00
2020,08,14,01,44,12.00
2020,08,14,01,45,12.00
2020,08,14,01,46,12.00
2020,08,14,01,47,12.00
2020,08,14,01,48,12.00
2020,08,14,01,49,12.00
2020,08,14,01,50,11.90
2020,08,14,01,51,11.90
2020,08,14,01,52,11.90
2020,08,14,01,53,11.90
2020,08,14,01,54,11.80
2020,08,14,01,55,11.80
2020,08,14,01,56,11.80
2020,08,14,01,57,11.80
2020,08,14,01,58,11.80
2020,08,14,01,59,11.80
2020,08,14,02,00,11.80
2020,08,14,02,01,11.80
2020,08,14,02,02,11.80
2020,08,14,02,03,11.80
2020,08,14,02,04,11.80
2020,08,14,02,05,11.80
2020,08,14,02,06,11.80
2020,08,14,02,07,11.80
2020,08,14,02,08,11.80
2020,08,14,02,09,11.80
2020,08,14,02,10,11.80
2020,08,14,02,11,11.80
2020,08,14,02,12,11.80
2020,08,14,02,13,11.80
2020,08,14,02,14,11.80
2020,08,14,02,15,11.80
2020,08,14,02,16,11.80
2020,08,14,02,17,11.80
2020,08,14,02,18,11.80
2020,08,14,02,19,11.80
2020,08,14,02,20,11.80
2020,08,14,02,21,11.80
2020,08,14,02,22,11.80
2020,08,14,02,23,11.80
2020,08,14,02,24,11.70
2020,08,14,02,25,11.70
2020,08,14,02,26,11.70
2020,08,14,02,27,11.70
2020,08,14,02,28,11.70
2020,08,14,02,29,11.70
2020,08,14,02,30,11.60
2020,08,14,02,31,11.60
2020,08,14,02,32,11.60
2020,08,14,02,33,11.60
2020,08,14,02,34,11.60
2020,08,14,02,35,11.60
2020,08,14,02,36,11.50
2020,08,14,02,37,11.40
2020,08,14,02,38,11.40
2020,08,14,02,39,11.40
2020,08,14,02,40,11.40
2020,08,14,02,41,11.40
2020,08,14,02,42,11.40
2020,08,14,02,43,11.40
2020,08,14,02,44,11.30
2020,08,14,02,45,11.30
2020,08,14,02,46,11.30
2020,08,14,02,47,11.30
2020,08,14,02,48,11.30
2020,08,14,02,49,11.30
2020,08,14,02,50,11.20
2020,08,14,02,51,11.20
2020,08,14,02,52,11.20
2020,08,14,02,53,11.20
2020,08,14,02,54,11.20
2020,08,14,02,55,11.20
2020,08,14,02,56,11.20
2020,08,14,02,57,11.10
2020,08,14,02,58,11.10
2020,08,14,02,59,11.10
2020,08,14,03,00,11.10
2020,08,14,03,01,11.10
2020,08,14,03,02,11.10
2020,08,14,03,03,11.10
2020,08,14,03,04,11.10
2020,08,14,03,05,11.10
2020,08,14,03,06,11.10
2020,08,14,03,07,11.10
2020,08,14,03,08,11.10
2020,08,14,03,09,11.10
2020,08,14,03,10,11.10
2020,08,14,03,11,11.10
2020,08,14,03,12,11.00
2020,08,14,03,13,11.00
2020,08,14,03,14,10.90
2020,08,14,03,15,10.90
2020,08,14,03,16,10.90
2020,08,14,03,17,10.90
2020,08,14,03,18,10.90
2020,08,14,03,19,10.90
2020,08,14,03,20,10.90
2020,08,14,03,21,10.90
2020,08,14,03,22,10.90
2020,08,14,03,23,10.90
2020,08,14,03,24,10.90
2020,08,14,03,25,10.90
2020,08,14,03,26,10.90
2020,08,14,03,27,10.90
2020,08,14,03,28,10.90
2020,08,14,03,29,10.90
2020,08,14,03,30,10.90
2020,08,14,03,31,10.90
2020,08,14,03,32,10.90
2020,08,14,03,33,10.90
2020,08,14,03,34,10.90
2020,08,14,03,35,10.90
2020,08,14,03,36,10.90
2020,08,14,03,37,10.90
2020,08,14,03,38,10.90
2020,08,14,03,39,10.90
2020,08,14,03,40,10.90
2020,08,14,03,41,10.90
2020,08,14,03,42,10.90
2020,08,14,03,43,10.90
2020,08,14,03,44,10.90
2020,08,14,03,45,10.90
2020,08,14,03,46,10.90
2020,08,14,03,47,10.90
2020,08,14,03,48,10.90
2020,08,14,03,49,10.80
2020,08,14,03,50,10.80
2020,08,14,03,51,10.80
2020,08,14,03,52,10.80
2020,08,14,03,53,10.80
2020,08,14,03,54,10.80
2020,08,14,03,55,10.80
2020,08,14,03,56,10.80
2020,08,14,03,57,10.80
2020,08,14,03,58,10.80
2020,08,14,03,59,10.80
2020,08,14,04,00,10.80
2020,08,14,04,01,10.80
2020,08,14,04,02,10.80
2020,08,14,04,03,10.80
2020,08,14,04,04,10.70
2020,08,14,04,05,10.70
2020,08,14,04,06,10.70
2020,08,14,04,07,10.70
2020,08,14,04,08,10.70
2020,08,14,04,09,10.70
2020,08,14,04,10,10.70
2020,08,14,04,11,10.70
2020,08,14,04,12,10.70
2020,08,14,04,13,10.70
2020,08,14,04,14,10.70
2020,08,14,04,15,10.70
2020,08,14,04,16,10.70
2020,08,14,04,17,10.70
2020,08,14,04,18,10.70
2020,08,14,04,19,10.60
2020,08,14,04,20,10.60
2020,08,14,04,21,10.60
2020,08,14,04,22,10.60
2020,08,14,04,23,10.60
2020,08,14,04,24,10.60
2020,08,14,04,25,10.60
2020,08,14,04,26,10.60
2020,08,14,04,27,10.60
2020,08,14,04,28,10.60
2020,08,14,04,29,10.60
2020,08,14,04,30,10.60
2020,08,14,04,31,10.60
2020,08,14,04,32,10.60
2020,08,14,04,33,10.60
2020,08,14,04,34,10.60
2020,08,14,04,35,10.60
2020,08,14,04,36,10.60
2020,08,14,04,37,10.60
2020,08,14,04,38,10.60
2020,08,14,04,39,10.50
2020,08,14,04,40,10.50
2020,08,14,04,41,10.40
2020,08,14,04,42,10.40
2020,08,14,04,43,10.40
2020,08,14,04,44,10.40
2020,08,14,04,45,10.40
2020,08,14,04,46,10.40
2020,08,14,04,47,10.40
2020,08,14,04,48,10.40
2020,08,14,04,49,10.40
2020,08,14,04,50,10.40
2020,08,14,04,51,10.40
2020,08,14,04,52,10.30
2020,08,14,04,53,10.30
2020,08,14,04,54,10.30
2020,08,14,04,55,10.30
2020,08,14,04,56,10.30
2020,08,14,04,57,10.30
2020,08,14,04,58,10.30
2020,08,14,04,59,10.20
2020,08,14,05,00,10.20
2020,08,14,05,01,10.20
2020,08,14,05,02,10.20
2020,08,14,05,03,10.20
2020,08,14,05,04,10.10
2020,08,14,05,05,10.10
2020,08,14,05,06,10.10
2020,08,14,05,07,10.10
2020,08,14,05,08,10.10
2020,08,14,05,09,10.10
2020,08,14,05,10,10.10
2020,08,14,05,11,10.10
2020,08,14,05,12,10.10
2020,08,14,05,13,10.10
2020,08,14,05,14,10.10
2020,08,14,05,15,10.10
2020,08,14,05,16,10.10
2020,08,14,05,17,10.10
2020,08,14,05,18,10.10
2020,08,14,05,19,10.10
2020,08,14,05,20,10.10
2020,08,14,05,21,10.10
2020,08,14,05,22,10.10
2020,08,14,05,23,10.10
2020,08,14,05,24,10.10
2020,08,14,05,25,10.10
2020,08,14,05,26,10.10
2020,08,14,05,27,10.10
2020,08,14,05,28,10.10
2020,08,14,05,29,10.10
2020,08,14,05,30,10.10
2020,08,14,05,31,10.10
2020,08,14,05,32,10.10
2020,08,14,05,33,10.10
2020,08,14,05,34,10.10
2020,08,14,05,35,10.10
2020,08,14,05,36,10.00
2020,08,14,05,37,9.90
2020,08,14,05,38,9.90
2020,08,14,05,39,9.90
2020,08,14,05,40,9.90
2020,08,14,05,41,9.90
2020,08,14,05,42,9.90
2020,08,14,05,43,9.90
2020,08,14,05,44,9.90
2020,08,14,05,45,9.90
2020,08,14,05,46,9.90
2020,08,14,05,47,9.90
2020,08,14,05,48,9.90
2020,08,14,05,49,9.90
2020,08,14,05,50,9.90
2020,08,14,05,51,9.90
2020,08,14,05,52,9.90
2020,08,14,05,53,9.90
2020,08,14,05,54,9.90
2020,08,14,05,55,9.90
2020,08,14,05,56,9.90
2020,08,14,05,57,9.90
2020,08,14,05,58,9.90
2020,08,14,05,59,9.90
2020,08,14,06,00,9.90
2020,08,14,06,01,9.90
2020,08,14,06,02,9.90
2020,08,14,06,03,9.90
2020,08,14,06,04,9.90
2020,08,14,06,05,9.80
2020,08,14,06,06,9.80
2020,08,14,06,07,9.80
2020,08,14,06,08,9.80
2020,08,14,06,09,9.80
2020,08,14,06,10,9.80
2020,08,14,06,11,9.80
2020,08,14,06,12,9.80
2020,08,14,06,13,9.80
2020,08,14,06,14,9.80
2020,08,14,06,15,9.80
2020,08,14,06,16,9.80
2020,08,14,06,17,9.80
2020,08,14,06,18,9.80
2020,08,14,06,19,9.80
2020,08,14,06,20,9.80
2020,08,14,06,21,9.70
2020,08,14,06,22,9.80
2020,08,14,06,23,9.80
2020,08,14,06,24,9.80
2020,08,14,06,25,9.80
2020,08,14,06,26,9.80
2020,08,14,06,27,9.80
2020,08,14,06,28,9.90
2020,08,14,06,29,9.90
2020,08,14,06,30,9.90
2020,08,14,06,31,9.90
2020,08,14,06,32,9.90
2020,08,14,06,33,9.90
2020,08,14,06,34,9.90
2020,08,14,06,35,9.90
2020,08,14,06,36,9.90
2020,08,14,06,37,9.90
2020,08,14,06,38,9.90
2020,08,14,06,39,9.90
2020,08,14,06,40,10.00
2020,08,14,06,41,10.10
2020,08,14,06,42,10.10
2020,08,14,06,43,10.10
2020,08,14,06,44,10.20
2020,08,14,06,45,10.30
2020,08,14,06,46,10.30
2020,08,14,06,47,10.40
2020,08,14,06,48,10.40
2020,08,14,06,49,10.40
2020,08,14,06,50,10.50
2020,08,14,06,51,10.60
2020,08,14,06,52,10.60
2020,08,14,06,53,10.70
2020,08,14,06,54,10.80
2020,08,14,06,55,10.80
2020,08,14,06,56,10.90
2020,08,14,06,57,10.90
2020,08,14,06,58,10.90
2020,08,14,06,59,11.00
2020,08,14,07,00,11.10
2020,08,14,07,01,11.10
2020,08,14,07,02,11.10
2020,08,14,07,03,11.20
2020,08,14,07,04,11.20
2020,08,14,07,05,11.30
2020,08,14,07,06,11.30
2020,08,14,07,07,11.40
2020,08,14,07,08,11.40
2020,08,14,07,09,11.40
2020,08,14,07,10,11.50
2020,08,14,07,11,11.60
2020,08,14,07,12,11.60
2020,08,14,07,13,11.70
2020,08,14,07,14,11.70
2020,08,14,07,15,11.80
2020,08,14,07,16,11.80
2020,08,14,07,17,11.90
2020,08,14,07,18,12.00
2020,08,14,07,19,12.00
2020,08,14,07,20,12.10
2020,08,14,07,21,12.10
2020,08,14,07,22,12.20
2020,08,14,07,23,12.30
2020,08,14,07,24,12.40
2020,08,14,07,25,12.50
2020,08,14,07,26,12.60
2020,08,14,07,27,12.70
2020,08,14,07,28,12.80
2020,08,14,07,29,12.90
2020,08,14,07,30,12.90
2020,08,14,07,31,13.00
2020,08,14,07,32,13.10
2020,08,14,07,33,13.20
2020,08,14,07,34,13.30
2020,08,14,07,35,13.50
2020,08,14,07,36,13.50
2020,08,14,07,37,13.60
2020,08,14,07,38,13.70
2020,08,14,07,39,13.90
2020,08,14,07,40,14.00
2020,08,14,07,41,14.10
2020,08,14,07,42,14.20
2020,08,14,07,43,14.40
2020,08,14,07,44,14.50
2020,08,14,07,45,14.60
2020,08,14,07,46,14.70
2020,08,14,07,47,14.80
2020,08,14,07,48,14.90
2020,08,14,07,49,15.00
2020,08,14,07,50,15.00
2020,08,14,07,51,15.10
2020,08,14,07,52,15.20
2020,08,14,07,53,15.30
2020,08,14,07,54,15.30
2020,08,14,07,55,15.40
2020,08,14,07,56,15.40
2020,08,14,07,57,15.50
2020,08,14,07,58,15.60
2020,08,14,07,59,15.70
2020,08,14,08,00,15.80
2020,08,14,08,01,15.90
2020,08,14,08,02,16.00
2020,08,14,08,03,16.10
2020,08,14,08,04,16.20
2020,08,14,08,05,16.30
2020,08,14,08,06,16.30
2020,08,14,08,07,16.40
2020,08,14,08,08,16.40
2020,08,14,08,09,16.50
2020,08,14,08,10,16.60
2020,08,14,08,11,16.60
2020,08,14,08,12,16.70
2020,08,14,08,13,16.70
2020,08,14,08,14,16.80
2020,08,14,08,15,16.80
2020,08,14,08,16,16.90
2020,08,14,08,17,17.00
2020,08,14,08,18,17.00
2020,08,14,08,19,17.00
2020,08,14,08,20,17.00
2020,08,14,08,21,17.10
2020,08,14,08,22,17.10
2020,08,14,08,23,17.20
2020,08,14,08,24,17.20
2020,08,14,08,25,17.10
2020,08,14,08,26,17.10
2020,08,14,08,27,17.10
2020,08,14,08,28,17.10
2020,08,14,08,29,17.10
2020,08,14,08,30,17.10
2020,08,14,08,31,17.10
2020,08,14,08,32,17.00
2020,08,14,08,33,17.00
2020,08,14,08,34,17.10
2020,08,14,08,35,17.10
2020,08,14,08,36,17.20
2020,08,14,08,37,17.20
2020,08,14,08,38,17.20
2020,08,14,08,39,17.20
2020,08,14,08,40,17.20
2020,08,14,08,41,17.30
2020,08,14,08,42,17.30
2020,08,14,08,43,17.30
2020,08,14,08,44,17.30
2020,08,14,08,45,17.40
2020,08,14,08,46,17.40
2020,08,14,08,47,17.50
2020,08,14,08,48,17.50
2020,08,14,08,49,17.50
2020,08,14,08,50,17.60
2020,08,14,08,51,17.60
2020,08,14,08,52,17.60
2020,08,14,08,53,17.70
2020,08,14,08,54,17.70
2020,08,14,08,55,17.80
2020,08,14,08,56,17.80
2020,08,14,08,57,17.90
2020,08,14,08,58,17.90
2020,08,14,08,59,17.90
2020,08,14,09,00,18.00
2020,08,14,09,01,18.10
2020,08,14,09,02,18.10
2020,08,14,09,03,18.20
2020,08,14,09,04,18.20
2020,08,14,09,05,18.30
2020,08,14,09,06,18.30
2020,08,14,09,07,18.40
2020,08,14,09,08,18.40
2020,08,14,09,09,18.50
2020,08,14,09,10,18.50
2020,08,14,09,11,18.50
2020,08,14,09,12,18.50
2020,08,14,09,13,18.50
2020,08,14,09,14,18.50
2020,08,14,09,15,18.60
2020,08,14,09,16,18.70
2020,08,14,09,17,18.70
2020,08,14,09,18,18.80
2020,08,14,09,19,18.90
2020,08,14,09,20,18.90
2020,08,14,09,21,18.90
2020,08,14,09,22,19.00
2020,08,14,09,23,19.10
2020,08,14,09,24,19.10
2020,08,14,09,25,19.10
2020,08,14,09,26,19.10
2020,08,14,09,27,19.20
2020,08,14,09,28,19.30
2020,08,14,09,29,19.30
2020,08,14,09,30,19.40
2020,08,14,09,31,19.40
2020,08,14,09,32,19.30
2020,08,14,09,33,19.20
2020,08,14,09,34,19.20
2020,08,14,09,35,19.10
2020,08,14,09,36,19.10
2020,08,14,09,37,19.10
2020,08,14,09,38,19.20
2020,08,14,09,39,19.20
2020,08,14,09,40,19.20
2020,08,14,09,41,19.20
2020,08,14,09,42,19.20
2020,08,14,09,43,19.20
2020,08,14,09,44,19.20
2020,08,14,09,45,19.20
2020,08,14,09,46,19.20
2020,08,14,09,47,19.20
2020,08,14,09,48,19.20
2020,08,14,09,49,19.20
2020,08,14,09,50,19.30
2020,08,14,09,51,19.30
2020,08,14,09,52,19.40
2020,08,14,09,53,19.40
2020,08,14,09,54,19.50
2020,08,14,09,55,19.50
2020,08,14,09,56,19.50
2020,08,14,09,57,19.60
2020,08,14,09,58,19.60
2020,08,14,09,59,19.60
2020,08,14,10,00,19.50
2020,08,14,10,01,19.50
2020,08,14,10,02,19.50
2020,08,14,10,03,19.50
2020,08,14,10,04,19.50
2020,08,14,10,05,19.50
2020,08,14,10,06,19.50
2020,08,14,10,07,19.50
2020,08,14,10,08,19.50
2020,08,14,10,09,19.50
2020,08,14,10,10,19.50
2020,08,14,10,11,19.50
2020,08,14,10,12,19.50
2020,08,14,10,13,19.60
2020,08,14,10,14,19.60
2020,08,14,10,15,19.60
2020,08,14,10,16,19.70
2020,08,14,10,17,19.70
2020,08,14,10,18,19.80
2020,08,14,10,19,19.80
2020,08,14,10,20,19.90
2020,08,14,10,21,19.90
2020,08,14,10,22,19.90
2020,08,14,10,23,19.90
2020,08,14,10,24,20.10
2020,08,14,10,25,20.10
2020,08,14,10,26,20.10
2020,08,14,10,27,20.10
2020,08,14,10,28,20.00
2020,08,14,10,29,19.90
2020,08,14,10,30,19.90
2020,08,14,10,31,19.90
2020,08,14,10,32,19.90
2020,08,14,10,33,19.90
2020,08,14,10,34,19.90
2020,08,14,10,35,19.90
2020,08,14,10,36,20.10
2020,08,14,10,37,20.10
2020,08,14,10,38,20.20
2020,08,14,10,39,20.20
2020,08,14,10,40,20.10
2020,08,14,10,41,20.10
2020,08,14,10,42,20.20
2020,08,14,10,43,20.20
2020,08,14,10,44,20.20
2020,08,14,10,45,20.20
2020,08,14,10,46,20.20
2020,08,14,10,47,20.20
2020,08,14,10,48,20.20
2020,08,14,10,49,20.30
2020,08,14,10,50,20.40
2020,08,14,10,51,20.50
2020,08,14,10,52,20.50
2020,08,14,10,53,20.60
2020,08,14,10,54,20.60
2020,08,14,10,55,20.60
2020,08,14,10,56,20.60
2020,08,14,10,57,20.70
2020,08,14,10,58,20.70
2020,08,14,10,59,20.70
2020,08,14,11,00,20.70
2020,08,14,11,01,20.70
2020,08,14,11,02,20.70
2020,08,14,11,03,20.70
2020,08,14,11,04,20.70
2020,08,14,11,05,20.70
2020,08,14,11,06,20.70
2020,08,14,11,07,20.70
2020,08,14,11,08,20.80
2020,08,14,11,09,20.80
2020,08,14,11,10,20.90
2020,08,14,11,11,20.90
2020,08,14,11,12,20.80
2020,08,14,11,13,20.70
2020,08,14,11,14,20.70
2020,08,14,11,15,20.70
2020,08,14,11,16,20.70
2020,08,14,11,17,20.70
2020,08,14,11,18,20.80
2020,08,14,11,19,20.90
2020,08,14,11,20,21.00
2020,08,14,11,21,21.10
2020,08,14,11,22,21.20
2020,08,14,11,23,21.30
2020,08,14,11,24,21.20
2020,08,14,11,25,21.10
2020,08,14,11,26,21.00
2020,08,14,11,27,20.90
2020,08,14,11,28,20.80
2020,08,14,11,29,20.70
2020,08,14,11,30,20.70
2020,08,14,11,31,20.70
2020,08,14,11,32,20.80
2020,08,14,11,33,20.80
2020,08,14,11,34,20.80
2020,08,14,11,35,20.90
2020,08,14,11,36,20.90
2020,08,14,11,37,20.90
2020,08,14,11,38,20.90
2020,08,14,11,39,20.90
2020,08,14,11,40,20.90
2020,08,14,11,41,21.00
2020,08,14,11,42,21.00
2020,08,14,11,43,21.00
2020,08,14,11,44,21.00
2020,08,14,11,45,21.10
2020,08,14,11,46,21.10
2020,08,14,11,47,21.20
2020,08,14,11,48,21.20
2020,08,14,11,49,21.30
2020,08,14,11,50,21.30
2020,08,14,11,51,21.30
2020,08,14,11,52,21.30
2020,08,14,11,53,21.30
2020,08,14,11,54,21.30
2020,08,14,11,55,21.40
2020,08,14,11,56,21.40
2020,08,14,11,57,21.50
2020,08,14,11,58,21.60
2020,08,14,11,59,21.60
2020,08,14,12,00,21.60
2020,08,14,12,01,21.60
2020,08,14,12,02,21.60
2020,08,14,12,03,21.60
2020,08,14,12,04,21.60
2020,08,14,12,05,21.50
2020,08,14,12,06,21.40
2020,08,14,12,07,21.30
2020,08,14,12,08,21.20
2020,08,14,12,09,21.20
2020,08,14,12,10,21.20
2020,08,14,12,11,21.20
2020,08,14,12,12,21.20
2020,08,14,12,13,21.30
2020,08,14,12,14,21.30
2020,08,14,12,15,21.30
2020,08,14,12,16,21.40
2020,08,14,12,17,21.40
2020,08,14,12,18,21.30
2020,08,14,12,19,21.40
2020,08,14,12,20,21.50
2020,08,14,12,21,21.60
2020,08,14,12,22,21.60
2020,08,14,12,23,21.70
2020,08,14,12,24,21.70
2020,08,14,12,25,21.80
2020,08,14,12,26,21.90
2020,08,14,12,27,22.00
2020,08,14,12,28,22.00
2020,08,14,12,29,22.10
2020,08,14,12,30,22.10
2020,08,14,12,31,22.10
2020,08,14,12,32,22.10
2020,08,14,12,33,22.10
2020,08,14,12,34,22.10
2020,08,14,12,35,22.00
2020,08,14,12,36,22.00
2020,08,14,12,37,22.00
2020,08,14,12,38,22.00
2020,08,14,12,39,21.80
2020,08,14,12,40,21.70
2020,08,14,12,41,21.70
2020,08,14,12,42,21.60
2020,08,14,12,43,21.70
2020,08,14,12,44,21.70
2020,08,14,12,45,21.60
2020,08,14,12,46,21.50
2020,08,14,12,47,21.40
2020,08,14,12,48,21.50
2020,08,14,12,49,21.60
2020,08,14,12,50,21.60
2020,08,14,12,51,21.70
2020,08,14,12,52,21.80
2020,08,14,12,53,21.80
2020,08,14,12,54,21.80
2020,08,14,12,55,21.80
2020,08,14,12,56,21.80
2020,08,14,12,57,21.80
2020,08,14,12,58,21.80
2020,08,14,12,59,21.80
2020,08,14,13,00,21.80
2020,08,14,13,01,21.90
2020,08,14,13,02,21.90
2020,08,14,13,03,21.90
2020,08,14,13,04,22.00
2020,08,14,13,05,22.10
2020,08,14,13,06,22.10
2020,08,14,13,07,22.20
2020,08,14,13,08,22.20
2020,08,14,13,09,22.10
2020,08,14,13,10,22.10
2020,08,14,13,11,22.00
2020,08,14,13,12,22.00
2020,08,14,13,13,21.90
2020,08,14,13,14,21.80
2020,08,14,13,15,21.80
2020,08,14,13,16,21.80
2020,08,14,13,17,21.90
2020,08,14,13,18,22.00
2020,08,14,13,19,22.00
2020,08,14,13,20,22.00
2020,08,14,13,21,22.20
2020,08,14,13,22,22.30
2020,08,14,13,23,22.50
2020,08,14,13,24,22.60
2020,08,14,13,25,22.60
2020,08,14,13,26,22.70
2020,08,14,13,27,22.80
2020,08,14,13,28,22.80
2020,08,14,13,29,22.80
2020,08,14,13,30,22.70
2020,08,14,13,31,22.70
2020,08,14,13,32,22.70
2020,08,14,13,33,22.60
2020,08,14,13,34,22.60
2020,08,14,13,35,22.50
2020,08,14,13,36,22.30
2020,08,14,13,37,22.30
2020,08,14,13,38,22.20
2020,08,14,13,39,22.10
2020,08,14,13,40,22.10
2020,08,14,13,41,22.10
2020,08,14,13,42,22.10
2020,08,14,13,43,22.10
2020,08,14,13,44,22.20
2020,08,14,13,45,22.20
2020,08,14,13,46,22.30
2020,08,14,13,47,22.40
2020,08,14,13,48,22.40
2020,08,14,13,49,22.40
2020,08,14,13,50,22.40
2020,08,14,13,51,22.40
2020,08,14,13,52,22.50
2020,08,14,13,53,22.60
2020,08,14,13,54,22.60
2020,08,14,13,55,22.60
2020,08,14,13,56,22.60
2020,08,14,13,57,22.50
2020,08,14,13,58,22.50
2020,08,14,13,59,22.50
2020,08,14,14,00,22.50
2020,08,14,14,01,22.50
2020,08,14,14,02,22.50
2020,08,14,14,03,22.50
2020,08,14,14,04,22.40
2020,08,14,14,05,22.30
2020,08,14,14,06,22.30
2020,08,14,14,07,22.30
2020,08,14,14,08,22.30
2020,08,14,14,09,22.40
2020,08,14,14,10,22.50
2020,08,14,14,11,22.60
2020,08,14,14,12,22.70
2020,08,14,14,13,22.70
2020,08,14,14,14,22.80
2020,08,14,14,15,22.70
2020,08,14,14,16,22.70
2020,08,14,14,17,22.70
2020,08,14,14,18,22.60
2020,08,14,14,19,22.60
2020,08,14,14,20,22.50
2020,08,14,14,21,22.40
2020,08,14,14,22,22.30
2020,08,14,14,23,22.20
2020,08,14,14,24,22.20
2020,08,14,14,25,22.20
2020,08,14,14,26,22.10
2020,08,14,14,27,22.10
2020,08,14,14,28,22.10
2020,08,14,14,29,22.10
2020,08,14,14,30,22.20
2020,08,14,14,31,22.20
2020,08,14,14,32,22.20
2020,08,14,14,33,22.20
2020,08,14,14,34,22.20
2020,08,14,14,35,22.20
2020,08,14,14,36,22.30
2020,08,14,14,37,22.30
2020,08,14,14,38,22.30
2020,08,14,14,39,22.30
2020,08,14,14,40,22.30
2020,08,14,14,41,22.30
2020,08,14,14,42,22.30
2020,08,14,14,43,22.30
2020,08,14,14,44,22.20
2020,08,14,14,45,22.20
2020,08,14,14,46,22.20
2020,08,14,14,47,22.30
2020,08,14,14,48,22.40
2020,08,14,14,49,22.40
2020,08,14,14,50,22.40
2020,08,14,14,51,22.40
2020,08,14,14,52,22.40
2020,08,14,14,53,22.30
2020,08,14,14,54,22.40
2020,08,14,14,55,22.40
2020,08,14,14,56,22.50
2020,08,14,14,57,22.50
2020,08,14,14,58,22.60
2020,08,14,14,59,22.70
2020,08,14,15,00,22.70
2020,08,14,15,01,22.80
2020,08,14,15,02,22.90
2020,08,14,15,03,22.90
2020,08,14,15,04,22.90
2020,08,14,15,05,22.90
2020,08,14,15,06,22.90
2020,08,14,15,07,22.90
2020,08,14,15,08,22.90
2020,08,14,15,09,22.90
2020,08,14,15,10,22.80
2020,08,14,15,11,22.80
2020,08,14,15,12,22.80
2020,08,14,15,13,22.80
2020,08,14,15,14,22.80
2020,08,14,15,15,22.80
2020,08,14,15,16,22.80
2020,08,14,15,17,22.80
2020,08,14,15,18,22.80
2020,08,14,15,19,22.90
2020,08,14,15,20,22.90
2020,08,14,15,21,22.90
2020,08,14,15,22,22.90
2020,08,14,15,23,22.90
2020,08,14,15,24,22.90
2020,08,14,15,25,22.90
2020,08,14,15,26,22.80
2020,08,14,15,27,22.80
2020,08,14,15,28,22.70
2020,08,14,15,29,22.70
2020,08,14,15,30,22.70
2020,08,14,15,31,22.70
2020,08,14,15,32,22.80
2020,08,14,15,33,22.90
2020,08,14,15,34,22.90
2020,08,14,15,35,23.10
2020,08,14,15,36,23.10
2020,08,14,15,37,23.20
2020,08,14,15,38,23.20
2020,08,14,15,39,23.30
2020,08,14,15,40,23.30
2020,08,14,15,41,23.20
2020,08,14,15,42,23.20
2020,08,14,15,43,23.10
2020,08,14,15,44,23.10
2020,08,14,15,45,23.00
2020,08,14,15,46,22.90
2020,08,14,15,47,22.90
2020,08,14,15,48,22.90
2020,08,14,15,49,22.90
2020,08,14,15,50,22.90
2020,08,14,15,51,22.90
2020,08,14,15,52,22.90
2020,08,14,15,53,22.90
2020,08,14,15,54,22.90
2020,08,14,15,55,22.80
2020,08,14,15,56,22.80
2020,08,14,15,57,22.80
2020,08,14,15,58,22.80
2020,08,14,15,59,22.90
2020,08,14,16,00,22.90
2020,08,14,16,01,23.00
2020,08,14,16,02,23.10
2020,08,14,16,03,23.10
2020,08,14,16,04,23.20
2020,08,14,16,05,23.20
2020,08,14,16,06,23.30
2020,08,14,16,07,23.30
2020,08,14,16,08,23.30
2020,08,14,16,09,23.30
2020,08,14,16,10,23.30
2020,08,14,16,11,23.30
2020,08,14,16,12,23.30
2020,08,14,16,13,23.20
2020,08,14,16,14,23.10
2020,08,14,16,15,23.10
2020,08,14,16,16,23.10
2020,08,14,16,17,23.10
2020,08,14,16,18,23.20
2020,08,14,16,19,23.30
2020,08,14,16,20,23.30
2020,08,14,16,21,23.30
2020,08,14,16,22,23.40
2020,08,14,16,23,23.40
2020,08,14,16,24,23.40
2020,08,14,16,25,23.40
2020,08,14,16,26,23.30
2020,08,14,16,27,23.20
2020,08,14,16,28,23.10
2020,08,14,16,29,23.00
2020,08,14,16,30,22.90
2020,08,14,16,31,22.90
2020,08,14,16,32,22.90
2020,08,14,16,33,22.90
2020,08,14,16,34,22.90
2020,08,14,16,35,22.90
2020,08,14,16,36,22.90
2020,08,14,16,37,22.80
2020,08,14,16,38,22.80
2020,08,14,16,39,22.80
2020,08,14,16,40,22.80
2020,08,14,16,41,22.80
2020,08,14,16,42,22.90
2020,08,14,16,43,22.90
2020,08,14,16,44,22.90
2020,08,14,16,45,22.90
2020,08,14,16,46,22.90
2020,08,14,16,47,22.90
2020,08,14,16,48,22.90
2020,08,14,16,49,22.80
2020,08,14,16,50,22.80
2020,08,14,16,51,22.70
2020,08,14,16,52,22.70
2020,08,14,16,53,22.70
2020,08,14,16,54,22.60
2020,08,14,16,55,22.60
2020,08,14,16,56,22.60
2020,08,14,16,57,22.50
2020,08,14,16,58,22.50
2020,08,14,16,59,22.40
2020,08,14,17,00,22.30
2020,08,14,17,01,22.20
2020,08,14,17,02,22.20
2020,08,14,17,03,22.10
2020,08,14,17,04,22.10
2020,08,14,17,05,22.10
2020,08,14,17,06,22.10
2020,08,14,17,07,22.20
2020,08,14,17,08,22.20
2020,08,14,17,09,22.20
2020,08,14,17,10,22.30
2020,08,14,17,11,22.30
2020,08,14,17,12,22.40
2020,08,14,17,13,22.40
2020,08,14,17,14,22.50
2020,08,14,17,15,22.50
2020,08,14,17,16,22.50
2020,08,14,17,17,22.60
2020,08,14,17,18,22.60
2020,08,14,17,19,22.60
2020,08,14,17,20,22.60
2020,08,14,17,21,22.60
2020,08,14,17,22,22.60